DLH942 EDDF-EGCC

Flight info

Callsign DLH942
Flight time 1h 21m
Altitude 34000
Route OBOKA3M/25C OBOKA Z29 TORNU DCT BATAK DCT GALSO Q63 ERING L179 LAM UN57 WELIN T420 ELVOS ELVO1M
Aircraft A321/M-SDE3FGHIRWY/LB1

Departure

Time 2026-05-07 12:16
Airport Frankfurt Main Airport (EDDF)

Arrival

Time 2026-05-07 13:37
Airport Manchester Airport (EGCC)
Time Latitude Longitude Altitude Speed Heading
2026-05-07 10:50 50.04752 8.57125 346 ft 0 kts 120°
2026-05-07 10:58 50.04538 8.56566 352 ft 0 kts 115°
2026-05-07 11:58 50.04541 8.56557 345 ft 4 kts 115°
2026-05-07 11:59 50.04552 8.56518 356 ft 4 kts 114°
2026-05-07 11:59 50.04561 8.56488 354 ft 4 kts 121°
2026-05-07 11:59 50.04578 8.56465 357 ft 4 kts 183°
2026-05-07 11:59 50.04588 8.56468 356 ft 3 kts 205°
2026-05-07 12:00 50.04573 8.56456 345 ft 0 kts 205°
2026-05-07 12:05 50.04572 8.56455 345 ft 1 kts 205°
2026-05-07 12:05 50.04556 8.56444 359 ft 4 kts 205°
2026-05-07 12:06 50.04527 8.56412 353 ft 6 kts 225°
2026-05-07 12:06 50.04505 8.56340 348 ft 9 kts 248°
2026-05-07 12:06 50.04482 8.56242 354 ft 11 kts 250°
2026-05-07 12:06 50.04454 8.56126 358 ft 12 kts 249°
2026-05-07 12:07 50.04430 8.56025 352 ft 9 kts 250°
2026-05-07 12:07 50.04395 8.55937 349 ft 10 kts 213°
2026-05-07 12:07 50.04325 8.55940 353 ft 11 kts 162°
2026-05-07 12:07 50.04252 8.55949 348 ft 11 kts 214°
2026-05-07 12:08 50.04215 8.55839 348 ft 12 kts 249°
2026-05-07 12:08 50.04185 8.55713 351 ft 13 kts 249°
2026-05-07 12:08 50.04153 8.55580 350 ft 12 kts 250°
2026-05-07 12:08 50.04129 8.55480 347 ft 10 kts 249°
2026-05-07 12:09 50.04104 8.55375 352 ft 11 kts 250°
2026-05-07 12:09 50.04077 8.55261 352 ft 12 kts 250°
2026-05-07 12:09 50.04047 8.55137 351 ft 13 kts 250°
2026-05-07 12:09 50.04017 8.55011 349 ft 9 kts 250°
2026-05-07 12:10 50.04006 8.54963 353 ft 5 kts 250°
2026-05-07 12:10 50.03988 8.54888 349 ft 10 kts 249°
2026-05-07 12:10 50.03963 8.54787 351 ft 6 kts 249°
2026-05-07 12:10 50.03947 8.54719 351 ft 9 kts 249°
2026-05-07 12:11 50.03922 8.54614 353 ft 12 kts 250°
2026-05-07 12:11 50.03891 8.54479 354 ft 13 kts 250°
2026-05-07 12:11 50.03857 8.54363 350 ft 11 kts 237°
2026-05-07 12:11 50.03809 8.54259 345 ft 12 kts 238°
2026-05-07 12:12 50.03777 8.54131 352 ft 13 kts 249°
2026-05-07 12:12 50.03745 8.53993 354 ft 14 kts 250°
2026-05-07 12:12 50.03710 8.53844 351 ft 15 kts 250°
2026-05-07 12:12 50.03672 8.53687 352 ft 16 kts 249°
2026-05-07 12:13 50.03629 8.53523 352 ft 17 kts 248°
2026-05-07 12:13 50.03588 8.53350 350 ft 17 kts 250°
2026-05-07 12:13 50.03547 8.53173 355 ft 18 kts 250°
2026-05-07 12:13 50.03501 8.52987 352 ft 18 kts 250°
2026-05-07 12:14 50.03454 8.52804 349 ft 17 kts 247°
2026-05-07 12:14 50.03417 8.52669 348 ft 13 kts 247°
2026-05-07 12:14 50.03348 8.52594 345 ft 13 kts 184°
2026-05-07 12:14 50.03252 8.52595 350 ft 14 kts 179°
2026-05-07 12:15 50.03112 8.52596 346 ft 29 kts 179°
2026-05-07 12:15 50.02712 8.52600 346 ft 91 kts 180°
2026-05-07 12:15 50.01864 8.52608 346 ft 150 kts 179°
2026-05-07 12:15 50.00674 8.52621 472 ft 183 kts 181°
2026-05-07 12:16 49.99452 8.52631 1314 ft 170 kts 181°
2026-05-07 12:16 49.98273 8.52636 1948 ft 174 kts 180°
2026-05-07 12:16 49.96985 8.52749 2208 ft 195 kts 176°
2026-05-07 12:16 49.95582 8.52930 2435 ft 216 kts 177°
2026-05-07 12:17 49.94027 8.53066 2695 ft 233 kts 179°
2026-05-07 12:17 49.92371 8.53160 3279 ft 239 kts 179°
2026-05-07 12:17 49.90699 8.53267 4077 ft 239 kts 179°
2026-05-07 12:17 49.89061 8.53364 4890 ft 240 kts 180°
2026-05-07 12:18 49.87387 8.53215 5546 ft 243 kts 193°
2026-05-07 12:18 49.85760 8.52319 5919 ft 259 kts 214°
2026-05-07 12:18 49.84437 8.50341 6197 ft 274 kts 240°
2026-05-07 12:18 49.83667 8.47581 6610 ft 284 kts 255°
2026-05-07 12:19 49.83189 8.44622 7419 ft 279 kts 258°
2026-05-07 12:19 49.82731 8.41742 8370 ft 273 kts 256°
2026-05-07 12:19 49.82046 8.38999 9080 ft 276 kts 245°
2026-05-07 12:19 49.81198 8.36324 9804 ft 276 kts 252°
2026-05-07 12:20 49.80934 8.33393 10344 ft 279 kts 277°
2026-05-07 12:20 49.81503 8.30475 10604 ft 295 kts 301°
2026-05-07 12:20 49.82951 8.28117 10708 ft 315 kts 323°
2026-05-07 12:20 49.84741 8.26084 10938 ft 330 kts 322°
2026-05-07 12:21 49.86569 8.23861 11384 ft 337 kts 320°
2026-05-07 12:21 49.88394 8.21554 11929 ft 341 kts 320°
2026-05-07 12:21 49.90230 8.19193 12524 ft 344 kts 320°
2026-05-07 12:21 49.92077 8.16807 13105 ft 347 kts 320°
2026-05-07 12:22 49.93936 8.14407 13664 ft 350 kts 320°
2026-05-07 12:22 49.95818 8.11985 14208 ft 353 kts 320°
2026-05-07 12:22 49.97719 8.09548 14723 ft 355 kts 320°
2026-05-07 12:22 49.99635 8.07095 15278 ft 358 kts 320°
2026-05-07 12:23 50.01558 8.04630 15816 ft 360 kts 320°
2026-05-07 12:23 50.03504 8.02133 16362 ft 363 kts 320°
2026-05-07 12:23 50.05463 7.99649 16872 ft 365 kts 320°
2026-05-07 12:23 50.07428 7.97202 17351 ft 368 kts 321°
2026-05-07 12:24 50.09446 7.94710 17837 ft 372 kts 321°
2026-05-07 12:24 50.11478 7.92205 18326 ft 375 kts 321°
2026-05-07 12:24 50.13535 7.89663 18719 ft 378 kts 321°
2026-05-07 12:24 50.15600 7.87101 19138 ft 381 kts 321°
2026-05-07 12:25 50.17673 7.84517 19596 ft 382 kts 321°
2026-05-07 12:25 50.19747 7.81918 20022 ft 384 kts 321°
2026-05-07 12:25 50.21834 7.79292 20394 ft 387 kts 320°
2026-05-07 12:25 50.23937 7.76644 20829 ft 389 kts 320°
2026-05-07 12:26 50.26052 7.73984 21241 ft 392 kts 320°
2026-05-07 12:26 50.28186 7.71305 21642 ft 394 kts 320°
2026-05-07 12:26 50.30297 7.68649 22046 ft 396 kts 320°
2026-05-07 12:26 50.32450 7.65935 22439 ft 399 kts 320°
2026-05-07 12:27 50.34618 7.63200 22837 ft 401 kts 320°
2026-05-07 12:27 50.36796 7.60444 23225 ft 404 kts 320°
2026-05-07 12:27 50.38984 7.57667 23669 ft 405 kts 320°
2026-05-07 12:27 50.41179 7.54873 23990 ft 408 kts 320°
2026-05-07 12:28 50.43392 7.52057 24313 ft 410 kts 320°
2026-05-07 12:28 50.45582 7.49271 24689 ft 411 kts 320°
2026-05-07 12:28 50.47806 7.46439 25006 ft 414 kts 320°
2026-05-07 12:28 50.50045 7.43587 25300 ft 416 kts 320°
2026-05-07 12:29 50.52303 7.40707 25606 ft 418 kts 320°
2026-05-07 12:29 50.54566 7.37816 25877 ft 421 kts 320°
2026-05-07 12:29 50.56838 7.34905 26183 ft 423 kts 320°
2026-05-07 12:29 50.59123 7.31972 26497 ft 425 kts 319°
2026-05-07 12:30 50.61410 7.29032 26846 ft 425 kts 320°
2026-05-07 12:30 50.63707 7.26071 27137 ft 428 kts 319°
2026-05-07 12:30 50.66010 7.23102 27481 ft 429 kts 319°
2026-05-07 12:30 50.68330 7.20110 27793 ft 431 kts 319°
2026-05-07 12:31 50.70625 7.17149 28096 ft 434 kts 320°
2026-05-07 12:31 50.72966 7.14127 28383 ft 436 kts 320°
2026-05-07 12:31 50.75316 7.11094 28687 ft 437 kts 320°
2026-05-07 12:31 50.77672 7.08049 28956 ft 440 kts 320°
2026-05-07 12:32 50.80047 7.04973 29210 ft 442 kts 320°
2026-05-07 12:32 50.82430 7.01883 29492 ft 443 kts 319°
2026-05-07 12:32 50.84765 6.98690 29747 ft 444 kts 314°
2026-05-07 12:32 50.86787 6.95002 29959 ft 445 kts 305°
2026-05-07 12:33 50.89824 6.86445 30424 ft 447 kts 296°
2026-05-07 12:33 50.91227 6.82069 30801 ft 445 kts 296°
2026-05-07 12:33 50.92614 6.77763 31086 ft 444 kts 296°
2026-05-07 12:34 50.94026 6.73374 31350 ft 444 kts 296°
2026-05-07 12:34 50.95414 6.69042 31579 ft 444 kts 296°
2026-05-07 12:34 50.96806 6.64682 31839 ft 444 kts 296°
2026-05-07 12:34 50.98199 6.60302 32152 ft 442 kts 296°
2026-05-07 12:35 50.99582 6.55947 32452 ft 441 kts 296°
2026-05-07 12:35 51.00961 6.51597 32719 ft 441 kts 296°
2026-05-07 12:35 51.02333 6.47255 32964 ft 440 kts 296°
2026-05-07 12:35 51.03702 6.42915 33230 ft 439 kts 296°
2026-05-07 12:36 51.05072 6.38567 33495 ft 439 kts 296°
2026-05-07 12:36 51.06436 6.34242 33741 ft 438 kts 296°
2026-05-07 12:36 51.07822 6.29933 33985 ft 438 kts 297°
2026-05-07 12:36 51.09245 6.25659 34057 ft 435 kts 298°
2026-05-07 12:37 51.12093 6.17288 34055 ft 432 kts 298°
2026-05-07 12:37 51.14945 6.08895 34053 ft 431 kts 297°
2026-05-07 12:38 51.17755 6.00465 34053 ft 430 kts 297°
2026-05-07 12:38 51.20536 5.92019 34045 ft 431 kts 296°
2026-05-07 12:39 51.23322 5.83551 34060 ft 431 kts 296°
2026-05-07 12:39 51.26103 5.75132 34060 ft 432 kts 296°
2026-05-07 12:40 51.28891 5.66646 34074 ft 432 kts 296°
2026-05-07 12:40 51.31663 5.58145 34072 ft 431 kts 296°
2026-05-07 12:41 51.34433 5.49636 34069 ft 431 kts 296°
2026-05-07 12:41 51.37199 5.41117 34069 ft 431 kts 296°
2026-05-07 12:42 51.39962 5.32581 34071 ft 432 kts 296°
2026-05-07 12:42 51.42253 5.25488 34072 ft 431 kts 296°
2026-05-07 12:43 51.45444 5.15559 34074 ft 431 kts 295°
2026-05-07 12:43 51.48180 5.07016 34100 ft 431 kts 295°
2026-05-07 12:44 51.50449 4.99898 34081 ft 431 kts 295°
2026-05-07 12:44 51.53175 4.91324 34097 ft 432 kts 295°
2026-05-07 12:45 51.55901 4.82721 34100 ft 432 kts 294°
2026-05-07 12:45 51.57843 4.72049 34097 ft 429 kts 278°
2026-05-07 12:46 51.58671 4.64120 34083 ft 429 kts 278°
2026-05-07 12:46 51.59664 4.54733 34085 ft 429 kts 278°
2026-05-07 12:47 51.60663 4.45279 34093 ft 429 kts 278°
2026-05-07 12:47 51.61650 4.35805 34092 ft 429 kts 278°
2026-05-07 12:48 51.62627 4.26332 34099 ft 429 kts 278°
2026-05-07 12:48 51.63595 4.16843 34099 ft 429 kts 278°
2026-05-07 12:49 51.63906 4.07287 34097 ft 428 kts 270°
2026-05-07 12:49 51.63960 3.97776 34099 ft 428 kts 270°
2026-05-07 12:50 51.64009 3.88193 34095 ft 428 kts 269°
2026-05-07 12:50 51.64051 3.78632 34093 ft 428 kts 269°
2026-05-07 12:51 51.64089 3.69042 34101 ft 428 kts 269°
2026-05-07 12:51 51.64113 3.59469 34093 ft 428 kts 269°
2026-05-07 12:52 51.64130 3.49946 34101 ft 428 kts 269°
2026-05-07 12:52 51.64141 3.40366 34094 ft 428 kts 269°
2026-05-07 12:53 51.64145 3.30776 34110 ft 428 kts 269°
2026-05-07 12:53 51.64134 3.21189 34107 ft 428 kts 269°
2026-05-07 12:54 51.64121 3.11597 34107 ft 428 kts 269°
2026-05-07 12:54 51.64126 3.02073 34105 ft 429 kts 269°
2026-05-07 12:55 51.64127 2.92480 34107 ft 429 kts 269°
2026-05-07 12:55 51.64116 2.82881 34101 ft 429 kts 269°
2026-05-07 12:56 51.64080 2.73281 34101 ft 429 kts 269°
2026-05-07 12:56 51.64039 2.63677 34097 ft 429 kts 269°
2026-05-07 12:57 51.64000 2.54062 34100 ft 430 kts 269°
2026-05-07 12:57 51.63962 2.44457 34097 ft 430 kts 269°
2026-05-07 12:58 51.63910 2.34893 34095 ft 430 kts 269°
2026-05-07 12:58 51.63848 2.25248 34092 ft 431 kts 269°
2026-05-07 12:59 51.63774 2.15606 34092 ft 431 kts 269°
2026-05-07 12:59 51.63294 2.06010 34101 ft 430 kts 261°
2026-05-07 13:00 51.62400 1.96486 34101 ft 431 kts 261°
2026-05-07 13:00 51.61524 1.87017 34105 ft 431 kts 261°
2026-05-07 13:01 51.60632 1.77471 34106 ft 432 kts 261°
2026-05-07 13:01 51.59717 1.67921 34098 ft 432 kts 261°
2026-05-07 13:02 51.59192 1.58310 34108 ft 433 kts 272°
2026-05-07 13:02 51.59625 1.48630 34111 ft 434 kts 273°
2026-05-07 13:03 51.60031 1.39036 34107 ft 434 kts 273°
2026-05-07 13:03 51.60424 1.29339 34101 ft 434 kts 273°
2026-05-07 13:04 51.60822 1.19654 34106 ft 434 kts 273°
2026-05-07 13:04 51.61214 1.09961 34101 ft 434 kts 273°
2026-05-07 13:05 51.61598 1.00259 34096 ft 434 kts 272°
2026-05-07 13:05 51.61971 0.90553 34105 ft 435 kts 272°
2026-05-07 13:06 51.62333 0.80897 34099 ft 435 kts 272°
2026-05-07 13:06 51.62689 0.71177 34106 ft 436 kts 272°
2026-05-07 13:07 51.63040 0.61438 34106 ft 436 kts 272°
2026-05-07 13:07 51.63385 0.51704 34104 ft 436 kts 272°
2026-05-07 13:08 51.63730 0.41981 34107 ft 436 kts 272°
2026-05-07 13:08 51.64055 0.32280 34103 ft 436 kts 272°
2026-05-07 13:09 51.64491 0.22521 34097 ft 437 kts 279°
2026-05-07 13:09 51.66546 0.13333 34096 ft 440 kts 299°
2026-05-07 13:10 51.70400 0.05685 34096 ft 441 kts 313°
2026-05-07 13:10 51.74703 -0.01380 34107 ft 442 kts 313°
2026-05-07 13:11 51.78970 -0.08435 34101 ft 442 kts 313°
2026-05-07 13:11 51.83273 -0.15559 34092 ft 444 kts 314°
2026-05-07 13:12 51.87588 -0.22723 34078 ft 445 kts 314°
2026-05-07 13:12 51.91910 -0.29918 34075 ft 446 kts 314°
2026-05-07 13:13 51.96237 -0.37135 34078 ft 447 kts 313°
2026-05-07 13:13 52.00565 -0.44372 34080 ft 447 kts 313°
2026-05-07 13:14 52.04901 -0.51646 34060 ft 450 kts 314°
2026-05-07 13:14 52.09265 -0.59003 34054 ft 454 kts 314°
2026-05-07 13:15 52.13627 -0.66379 34058 ft 456 kts 314°
2026-05-07 13:15 52.18031 -0.73831 33984 ft 457 kts 314°
2026-05-07 13:16 52.20219 -0.77541 33549 ft 451 kts 314°
2026-05-07 13:16 52.22374 -0.81203 33133 ft 444 kts 314°
2026-05-07 13:16 52.24561 -0.84689 32721 ft 439 kts 321°
2026-05-07 13:16 52.27047 -0.87548 32317 ft 435 kts 329°
2026-05-07 13:17 52.29624 -0.90096 31919 ft 433 kts 330°
2026-05-07 13:17 52.32197 -0.92640 31523 ft 432 kts 330°
2026-05-07 13:17 52.34768 -0.95185 31143 ft 430 kts 329°
2026-05-07 13:17 52.37279 -0.97686 30754 ft 427 kts 329°
2026-05-07 13:18 52.39824 -1.00228 30070 ft 430 kts 329°
2026-05-07 13:18 52.42386 -1.02793 29205 ft 433 kts 329°
2026-05-07 13:18 52.44956 -1.05374 28353 ft 435 kts 329°
2026-05-07 13:18 52.47541 -1.07973 27537 ft 437 kts 328°
2026-05-07 13:19 52.50138 -1.10587 26743 ft 438 kts 328°
2026-05-07 13:19 52.52727 -1.13198 25970 ft 438 kts 328°
2026-05-07 13:19 52.55331 -1.15827 25215 ft 438 kts 328°
2026-05-07 13:19 52.57927 -1.18446 24481 ft 437 kts 327°
2026-05-07 13:20 52.60516 -1.21058 23768 ft 436 kts 327°
2026-05-07 13:20 52.63098 -1.23661 22958 ft 435 kts 327°
2026-05-07 13:20 52.65639 -1.26230 22152 ft 433 kts 327°
2026-05-07 13:20 52.68198 -1.28821 21354 ft 431 kts 327°
2026-05-07 13:21 52.70741 -1.31399 20559 ft 428 kts 327°
2026-05-07 13:21 52.73273 -1.33974 19819 ft 426 kts 327°
2026-05-07 13:21 52.75781 -1.36533 19119 ft 423 kts 327°
2026-05-07 13:21 52.78273 -1.39080 18404 ft 420 kts 327°
2026-05-07 13:22 52.80743 -1.41603 17749 ft 413 kts 327°
2026-05-07 13:22 52.83108 -1.44020 17601 ft 396 kts 327°
2026-05-07 13:22 52.85426 -1.46391 17462 ft 379 kts 327°
2026-05-07 13:22 52.87630 -1.48652 17150 ft 368 kts 326°
2026-05-07 13:23 52.89763 -1.50844 16646 ft 363 kts 326°
2026-05-07 13:23 52.91923 -1.53068 16105 ft 360 kts 326°
2026-05-07 13:23 52.94024 -1.55234 15550 ft 359 kts 326°
2026-05-07 13:23 52.96136 -1.57407 15015 ft 356 kts 326°
2026-05-07 13:24 52.98235 -1.59574 14477 ft 354 kts 326°
2026-05-07 13:24 53.00297 -1.61710 13624 ft 347 kts 326°
2026-05-07 13:24 53.02291 -1.63777 13135 ft 327 kts 326°
2026-05-07 13:24 53.04211 -1.65773 12787 ft 326 kts 324°
2026-05-07 13:25 53.05957 -1.68123 12373 ft 320 kts 311°
2026-05-07 13:25 53.07416 -1.70891 11977 ft 317 kts 308°
2026-05-07 13:25 53.08844 -1.73669 11591 ft 315 kts 308°
2026-05-07 13:25 53.10243 -1.76381 11383 ft 305 kts 308°
2026-05-07 13:26 53.11614 -1.79036 11098 ft 299 kts 308°
2026-05-07 13:26 53.12959 -1.81638 10865 ft 293 kts 308°
2026-05-07 13:26 53.14253 -1.84148 10602 ft 288 kts 308°
2026-05-07 13:26 53.15552 -1.86668 10257 ft 285 kts 308°
2026-05-07 13:27 53.16838 -1.89166 9906 ft 283 kts 307°
2026-05-07 13:27 53.18115 -1.91657 9537 ft 281 kts 307°
2026-05-07 13:27 53.19374 -1.94120 9207 ft 278 kts 307°
2026-05-07 13:27 53.20623 -1.96561 8870 ft 275 kts 307°
2026-05-07 13:28 53.21856 -1.98975 8540 ft 272 kts 307°
2026-05-07 13:28 53.23256 -2.01087 8213 ft 273 kts 326°
2026-05-07 13:28 53.25000 -2.02329 7917 ft 273 kts 345°
2026-05-07 13:28 53.26884 -2.02574 7522 ft 276 kts
2026-05-07 13:29 53.28759 -2.02338 7266 ft 271 kts
2026-05-07 13:29 53.30630 -2.02064 6809 ft 274 kts
2026-05-07 13:29 53.32451 -2.00989 6290 ft 281 kts 24°
2026-05-07 13:29 53.34233 -1.99570 5774 ft 285 kts 25°
2026-05-07 13:30 53.36027 -1.98109 5245 ft 288 kts 25°
2026-05-07 13:30 53.37845 -1.96631 4726 ft 292 kts 25°
2026-05-07 13:30 53.39665 -1.95159 4253 ft 284 kts 25°
2026-05-07 13:30 53.41404 -1.93768 3988 ft 271 kts 25°
2026-05-07 13:31 53.43060 -1.92465 3725 ft 254 kts 26°
2026-05-07 13:31 53.44699 -1.91610 3556 ft 245 kts
2026-05-07 13:31 53.46341 -1.92114 3556 ft 241 kts 334°
2026-05-07 13:31 53.47662 -1.93720 3528 ft 238 kts 307°
2026-05-07 13:32 53.48421 -1.96121 3523 ft 231 kts 280°
2026-05-07 13:32 53.48510 -1.98750 3531 ft 224 kts 257°
2026-05-07 13:32 53.47983 -2.01166 3525 ft 220 kts 234°
2026-05-07 13:32 53.47047 -2.03199 3524 ft 220 kts 229°
2026-05-07 13:33 53.46086 -2.05203 3386 ft 219 kts 228°
2026-05-07 13:33 53.45148 -2.07164 3133 ft 211 kts 228°
2026-05-07 13:33 53.44256 -2.09029 2851 ft 197 kts 227°
2026-05-07 13:33 53.43416 -2.10781 2604 ft 190 kts 227°
2026-05-07 13:34 53.42604 -2.12475 2370 ft 183 kts 227°
2026-05-07 13:34 53.41102 -2.15603 1892 ft 167 kts 227°
2026-05-07 13:34 53.40378 -2.17109 1663 ft 162 kts 228°
2026-05-07 13:35 53.39687 -2.18545 1445 ft 155 kts 226°
2026-05-07 13:35 53.39020 -2.19930 1227 ft 151 kts 227°
2026-05-07 13:35 53.38373 -2.21276 1031 ft 146 kts 227°
2026-05-07 13:35 53.37743 -2.22582 823 ft 143 kts 227°
2026-05-07 13:36 53.37128 -2.23860 600 ft 144 kts 229°
2026-05-07 13:36 53.36497 -2.25165 410 ft 145 kts 229°
2026-05-07 13:36 53.35867 -2.26483 279 ft 139 kts 229°
2026-05-07 13:36 53.35334 -2.27578 242 ft 101 kts 231°
2026-05-07 13:37 53.35001 -2.28264 232 ft 51 kts 231°
2026-05-07 13:37 53.34875 -2.28529 230 ft 12 kts 231°
2026-05-07 13:37 53.34900 -2.28652 228 ft 14 kts 321°
2026-05-07 13:37 53.34977 -2.28750 228 ft 12 kts 336°
2026-05-07 13:38 53.35035 -2.28702 228 ft 6 kts 46°
2026-05-07 13:38 53.35042 -2.28690 228 ft 0 kts 48°
2026-05-07 13:39 53.35043 -2.28689 228 ft 1 kts 48°
2026-05-07 13:40 53.35050 -2.28675 229 ft 3 kts 47°
2026-05-07 13:40 53.35068 -2.28641 230 ft 1 kts 47°
2026-05-07 13:40 53.35081 -2.28616 232 ft 5 kts 52°
2026-05-07 13:40 53.35114 -2.28547 228 ft 11 kts 51°
2026-05-07 13:41 53.35155 -2.28458 227 ft 7 kts 52°
2026-05-07 13:41 53.35183 -2.28400 229 ft 5 kts 51°
2026-05-07 13:41 53.35202 -2.28361 231 ft 3 kts 51°
2026-05-07 13:41 53.35214 -2.28337 232 ft 3 kts 51°
2026-05-07 13:42 53.35243 -2.28286 232 ft 9 kts 44°
2026-05-07 13:42 53.35301 -2.28217 233 ft 10 kts 28°
2026-05-07 13:42 53.35340 -2.28187 234 ft 4 kts 19°
2026-05-07 13:42 53.35362 -2.28176 235 ft 3 kts 15°
2026-05-07 13:43 53.35406 -2.28163 236 ft 9 kts
2026-05-07 13:43 53.35482 -2.28133 235 ft 13 kts 21°
2026-05-07 13:43 53.35544 -2.28062 235 ft 9 kts 44°
2026-05-07 13:43 53.35582 -2.27990 238 ft 8 kts 50°
2026-05-07 13:44 53.35622 -2.27912 240 ft 10 kts 39°
2026-05-07 13:44 53.35686 -2.27884 244 ft 10 kts
2026-05-07 13:44 53.35757 -2.27873 248 ft 11 kts
2026-05-07 13:44 53.35835 -2.27859 252 ft 11 kts
2026-05-07 13:45 53.35905 -2.27848 255 ft 11 kts
2026-05-07 13:45 53.35973 -2.27878 255 ft 8 kts 329°
2026-05-07 13:45 53.36032 -2.27962 255 ft 14 kts 318°
2026-05-07 13:45 53.36085 -2.28037 255 ft 9 kts 319°
2026-05-07 13:46 53.36136 -2.28117 255 ft 11 kts 316°
2026-05-07 13:46 53.36183 -2.28199 255 ft 11 kts 314°
2026-05-07 13:46 53.36234 -2.28285 255 ft 11 kts 315°
2026-05-07 13:46 53.36271 -2.28347 255 ft 8 kts 315°
2026-05-07 13:47 53.36289 -2.28377 255 ft 0 kts 315°
2026-05-07 13:47 53.36293 -2.28385 255 ft 1 kts 315°
2026-05-07 13:47 53.36310 -2.28413 255 ft 6 kts 315°
2026-05-07 13:47 53.36324 -2.28436 255 ft 4 kts 315°
2026-05-07 13:48 53.36358 -2.28472 255 ft 8 kts 342°
2026-05-07 13:48 53.36421 -2.28500 255 ft 10 kts 332°
2026-05-07 13:48 53.36470 -2.28572 255 ft 9 kts 315°
2026-05-07 13:48 53.36500 -2.28623 255 ft 3 kts 314°
2026-05-07 13:49 53.36523 -2.28663 255 ft 7 kts 315°
2026-05-07 13:49 53.36565 -2.28734 255 ft 10 kts 314°
2026-05-07 13:49 53.36627 -2.28774 255 ft 11 kts 22°
2026-05-07 13:49 53.36689 -2.28686 255 ft 12 kts 44°
2026-05-07 13:50 53.36740 -2.28601 255 ft 7 kts 45°
2026-05-07 13:50 53.36776 -2.28540 255 ft 7 kts 44°
2026-05-07 13:50 53.36794 -2.28511 255 ft 4 kts 45°
2026-05-07 13:50 53.36789 -2.28474 255 ft 3 kts 113°
2026-05-07 13:51 53.36785 -2.28440 255 ft 4 kts 115°
2026-05-07 13:51 53.36775 -2.28419 255 ft 2 kts 132°
2026-05-07 13:51 53.36766 -2.28402 255 ft 2 kts 134°
2026-05-07 13:51 53.36764 -2.28399 255 ft 0 kts 134°